NOAA 16 DEB, 41068

Orbit data source: Space-Track

NOAA 16 DEB, 41068 is space debris in SSO originally from a launch on Thu, 21 Sep 2000 UTC launched from the Air Force Western Test Range (AFWTR). Debris objects in space refer to the collection of defunct objects orbiting the Earth. Examples of debris include non-operational satellites, rocket bodies, and fragments generated from explosions, collisions, or faulty payload assembly.

Loading next visibility...
Identifier
41068, 2000-055AB
Orbit
SSO
Country
Flag of USUS
Related business
Manufacturer
Unknown
Mission
Spacecraft
Bus & Motor
Unknown
Mass
Unknown
Launch date (UTC)
2000-09-21 (25 years ago)
Launch vehicle
Unknown
Launch site
Air Force Western Test Range (AFWTR)
Object type
Payload
Rocket body
Debris
Shape & HBR
Unknown shape, 0.1 m
Radar Cross Section
Small (<0.1 m²)

Expand to show TLE details & history
Last TLE update: 1 day ago

TLE from 1 day ago
0 NOAA 16 DEB
1 41068U 00055AB  25300.83931627  .00003648  00000-0  10134-2 0  9990
2 41068  99.1440 258.5412 0144450  90.6297 271.1443 14.41167220518651
Epoch: 2025-10-27T20:08Z
TLE epoch observation values (Epoch: 2025-10-27T20:08:36.925Z)
Latitude
-0.00006°
Longitude
-80.04805°
Altitude
757.005 km
Speed
7.476 km/s
True Right ascension
17h 14m 09s
True Declination
0° 00' 00"
Sunlit
Object was in daylight at epoch
Visualization orbit readout
Latitude
Unknown
Longitude
Unknown
Altitude
Unknown
Speed
Unknown
Apparent Right ascension
Unknown
Apparent Declination
Unknown
Sunlit
N/A
Visualization observer readout
Local Sidereal Time
03:00:40
Azimuth
Unknown
Elevation
Unknown
Doppler factor
Unknown
Orbital elements
Apogee altitude
854.787 km
Perigee altitude
648.804 km
Semi-major axis
7,129.933 km
Eccentricity
0.01445
Inclination
99.144°
RAAN
258.5412°
Arg. of periapsis
90.6297°
True anomaly
269.48899°
Mean anomaly
271.1443°
Eccentric anomaly
270.31668°
Mean motion
3.60508 °/min
Orbital period
99.86 mins
BSTAR
0.0010134
Loading maneuver chart data...
Computing Atmospheric mass density...
Loading historical data...
Loading historical data...
Loading historical data...
Loading historical data...
Loading historical data...
Loading historical data...
Loading historical data...

Documentation

Showing up to 5 results
|